Weather in Oktyabr'sky

Russia / Volgograd Oblast     47°58′07″N   43°39′12″E
temp.,
°C
wind,
m/s
gust,
m/s
humid.,
%
clouds,
%
prec.,
mm/h
press.,
hPa
HPBL,
m
31 july, sat
sat3100:00+25ssw11313 0.0 101011
03:00+24ssw34305 0.0 101047
06:00+24wsw36374 0.0 1010151
09:00+31ssw342655 0.0 1010622
12:00+34s331981 0.0 10103051
15:00+34sse32160 0.0 10093257
18:00+34se42160 0.0 10092824
21:00+29se34200 0.0 101041
1 august, sun
sun100:00+27sse33240 0.0 101021
03:00+25nw22290 0.0 101111
06:00+27sse11310 0.0 101212
09:00+33ese22180 0.0 1012715
12:00+35se32140 0.0 10113442
15:00+36se23140 0.0 10103814
18:00+36se431626 0.0 10102953
21:00+31ese45221 0.0 101161
2 august, mon
mon200:00+29ese33250 0.0 101129
03:00+27ese45361 0.0 101172
06:00+28ese23360 0.0 101171
09:00+34se45253 0.0 1011916
12:00+37sse56145 0.0 10112764
15:00+38sse77125 0.0 10103055
18:00+36sse56145 0.0 10092687
21:00+31ese342046 0.0 100940
3 august, tue
tue300:00+30sse46205 0.0 101083
03:00+27sse33283 0.0 101030
06:00+27sse37270 0.0 1010131
09:00+34sse67215 0.0 1010688
12:00+37ssw67204 0.0 10093021
15:00+39ssw671873 0.0 10073986
18:00+38ssw461972 0.0 10072994
21:00+31wnw352979 0.0 100886
4 august, wed
wed400:00+28nne6114699 0.1 1009326
03:00+26nnw585369 0.1 1010363
06:00+22ne7107896 2.6 1010225
09:00+28n444693 3.0 1012551
12:00+31nw223515 0.3 10121459
15:00+33nnw4430100 0.3 10112584
18:00+31nw663698 0.1 1012915
21:00+26nne3653100 0.7 1013223